Location: *
(28.3744°N, 81.5492°W)
Time: 04:24:31
(UTC+00:00)

Meteor 1-28 Rocket - Pass Details

Date: 15 June 2025
Orbit: 442 x 455 km, 97.6° (Epoch: 11 July)

Event Time Altitude Azimuth Distance (km) Brightness Sun altitude
Exits shadow 08:55:31 12° 157° (SSE) 1,457 5.3 -17.9°
Maximum altitude 08:58:33 61° 77° (ENE) 522 3.4 -17.4°
Drops below altitude 10° 09:01:56 10° 357° (N) 1,591 6.2 -16.8°
Sets 09:03:59 0° 353° (N) 2,465 7.1 -16.5°
